METEOR 1-5 DEB, 58399

Orbit data source: Space-Track

METEOR 1-5 DEB, 58399 is space debris in LEO originally from a launch on Tue, 23 Jun 1970 UTC launched from the Plesetsk Missile And Space Complex (PKMTR). Debris objects in space refer to the collection of defunct objects orbiting the Earth. Examples of debris include non-operational satellites, rocket bodies, and fragments generated from explosions, collisions, or faulty payload assembly.

Loading next visibility...
Identifier
58399, 1970-047F
Orbit
LEO
Country
Flag of CISCIS
Related business
Manufacturer
VNIIEM
Mission
Spacecraft
Bus & Motor
Unknown
Mass
Unknown
Launch date (UTC)
1970-06-23 (56 years ago)
Launch vehicle
Unknown
Launch site
Plesetsk Missile And Space Complex (PKMTR)
Object type
Payload
Rocket body
Debris
Shape & HBR
Unknown shape, 0.1 m
Radar Cross Section
Small (<0.1 m²)

Expand to show TLE details & history
Last TLE update: 3 days ago

TLE from 3 days ago
0 METEOR 1-5 DEB
1 58399U 70047F   26170.63502192  .00001085  00000-0  59464-3 0  9991
2 58399  81.2206 244.8570 0022453 209.9231 150.0658 14.11139666136347
Epoch: 2026-06-19T15:14Z
TLE epoch observation values (Epoch: 2026-06-19T15:14:25.893Z)
Latitude
-0.0001°
Longitude
108.38792°
Altitude
872.461 km
Speed
7.409 km/s
True Right ascension
16h 19m 25s
True Declination
0° 00' 00"
Sunlit
Object was in full shadow at epoch
Visualization orbit readout
Latitude
Unknown
Longitude
Unknown
Altitude
Unknown
Speed
Unknown
Apparent Right ascension
Unknown
Apparent Declination
Unknown
Sunlit
N/A
Visualization observer readout
Local Sidereal Time
21:34:37
Azimuth
Unknown
Elevation
Unknown
Doppler factor
Unknown
Orbital elements
Apogee altitude
868.883 km
Perigee altitude
836.413 km
Semi-major axis
7,230.785 km
Eccentricity
0.00225
Inclination
81.2206°
RAAN
244.857°
Arg. of periapsis
209.9231°
True anomaly
150.19388°
Mean anomaly
150.0658°
Eccentric anomaly
150.12987°
Mean motion
3.52992 °/min
Orbital period
101.99 mins
BSTAR
0.00059464
Loading maneuver chart data...
Computing Atmospheric mass density...
Loading historical data...
Loading historical data...
Loading historical data...
Loading historical data...
Loading historical data...
Loading historical data...
Loading historical data...
Other satellites on launch #47 in the year 1970 (1970-06-23 UTC)

Documentation

Showing up to 5 results
|